www.pogodaiklimat.ru

Погода и климат >> Архив погоды >> Дания >> Виндебаек


ПОГОДА в Виндебаеке

  • Прогноз погоды в Виндебаеке
  • Монитор погоды в Виндебаеке

АРХИВ ПОГОДЫ в Виндебаеке

Время (UTC), дата Ветер
(напр.,м/с)
 
Видим.   Явления Облачность Т
(С)
Тd
(С)
f
(%)
Тe
(С)
Тes
(С)
Комфортность P
(гПа)
Po
(гПа)
Тmin
(С)
Tmax
(С)
R
(мм)
R24
(мм)
S
(см)
22 8.06 ЮЗ 5 40 км н/о +15.3 +10.0 71 +14 +14 1019.8 1019.2
23 8.06 ЮЗ 6 35 км н/о +14.9 +10.0 72 +13 +13 1020.0 1019.4
00 9.06 ЮЗ 6 30 км н/о +14.6 +10.6 77 +13 +13 1020.1 1019.5
01 9.06 ЮЗ 7 27 км н/о +14.6 +10.0 74 +13 +13 1020.3 1019.7
02 9.06 ЮЗ 7 30 км н/о +14.1 +9.8 75 +12 +12 1020.7 1020.1
03 9.06 ЮЗ 8 29 км н/о +13.9 +10.1 78 +11 +11 1020.9 1020.3
04 9.06 ЮЗ 7 28 км н/о +13.8 +9.7 76 +11 +11 1021.4 1020.8
05 9.06 ЮЗ 9 27 км н/о +14.3 +10.1 76 +12 +12 1021.9 1021.3
06 9.06 ЮЗ 9 21 км н/о +14.7 +10.3 75 +12 +12 1022.2 1021.6 +13.7 +16.6
07 9.06 ЮЗ 9 25 км н/о +15.1 +10.0 72 +13 +13 1022.7 1022.1
08 9.06 ЮЗ 8 20 км н/о +15.6 +10.7 73 +14 +14 1023.0 1022.4
09 9.06 ЮЗ 8 23 км н/о +16.5 +10.6 68 +15 +15 1023.6 1023.0
10 9.06 З 7 30 км н/о +16.5 +10.0 65 +15 +15 1024.0 1023.5
11 9.06 ЮЗ 7 30 км н/о +17.4 +11.0 66 +16 +16 1024.1 1023.6
12 9.06 З 5 28 км н/о +16.9 +10.2 65 +16 +16 1024.4 1023.8
13 9.06 Ю 6 24 км н/о +16.3 +12.5 78 +15 +15 1024.1 1023.6
14 9.06 Ю 5 30 км н/о +17.0 +12.4 74 +16 +16 1024.1 1023.5
15 9.06 Ю 4 25 км н/о +17.4 +12.0 71 +17 +17 1023.9 1023.4
16 9.06 Ю 3 30 км н/о +17.4 +12.0 71 +17 +17 1023.5 1023.0
17 9.06 ЮВ 1 26 км н/о +18.1 +12.5 70 +19 +19 1023.2 1022.7
18 9.06 С 2 30 км н/о +16.8 +11.2 70 +17 +17 1023.1 1022.5 +14.6 +18.9
19 9.06 В 2 35 км н/о +14.3 +12.0 86 +14 +14 1023.1 1022.5
20 9.06 В 3 19 км н/о +14.1 +12.6 91 +13 +13 1023.5 1022.9
21 9.06 В 2 24 км н/о +12.7 +11.0 89 +12 +12 1023.2 1022.7
22 9.06 В 3 21 км н/о +12.8 +11.2 90 +12 +12 1023.0 1022.4
23 9.06 В 3 29 км н/о +13.0 +10.6 85 +12 +12 1022.7 1022.1
00 10.06 В 4 20 км н/о +13.1 +11.6 91 +11 +11 1022.3 1021.7
01 10.06 В 4 20 км н/о +13.7 +12.3 91 +12 +12 1021.9 1021.3
02 10.06 В 6 23 км н/о +14.0 +12.0 88 +12 +12 1021.3 1020.7
03 10.06 В 5 23 км н/о +14.2 +11.6 84 +12 +12 1020.7 1020.1
04 10.06 СВ 5 24 км н/о +14.3 +11.0 81 +13 +13 1020.2 1019.6
05 10.06 СВ 5 29 км н/о +14.7 +10.2 74 +13 +13 1019.3 1018.8
06 10.06 СВ 6 28 км слаб. морось {дождь} н/о +14.9 +9.7 71 +13 +13 1018.8 1018.2 +12.2 +16.8 0.0
07 10.06 СВ 6 30 км {ливн. осадки, морось} н/о +15.3 +10.6 74 +14 +14 1018.4 1017.8
08 10.06 СВ 7 30 км н/о +15.5 +9.1 66 +14 +14 1018.0 1017.4
09 10.06 В 8 22 км {ливн. осадки, морось} н/о +15.1 +11.2 78 +13 +13 1017.2 1016.7 0.0
10 10.06 СВ 5 23 км н/о +15.3 +12.6 84 +14 +14 1017.3 1016.7
11 10.06 СВ 7 18 км н/о +14.7 +12.3 86 +13 +13 1017.2 1016.7
12 10.06 В 7 19 км {ливн. осадки, морось} н/о +14.7 +12.5 87 +13 +13 1017.0 1016.4
13 10.06 СВ 8 22 км н/о +15.7 +12.4 81 +14 +14 1016.4 1015.9
14 10.06 СВ 7 23 км н/о +15.4 +12.8 84 +14 +14 1016.2 1015.6
15 10.06 СВ 7 18 км н/о +15.1 +12.8 86 +13 +13 1015.9 1015.3
16 10.06 СВ 7 19 км н/о +15.3 +13.1 87 +14 +14 1015.6 1015.0
17 10.06 СВ 7 20 км н/о +14.9 +12.5 86 +13 +13 1015.0 1014.4
18 10.06 СВ 7 23 км н/о +14.8 +12.0 83 +13 +13 1014.9 1014.3 +14.5 +15.9
19 10.06 СВ 7 24 км н/о +14.7 +11.8 83 +13 +13 1015.0 1014.4
20 10.06 СВ 7 23 км н/о +14.3 +11.6 84 +12 +12 1014.8 1014.2
21 10.06 СВ 6 24 км н/о +14.2 +11.6 84 +12 +12 1013.9 1013.4
22 10.06 СВ 7 24 км н/о +14.0 +11.8 87 +12 +12 1013.7 1013.1
23 10.06 СВ 6 25 км н/о +14.2 +12.1 87 +12 +12 1013.4 1012.9
00 11.06 СВ 7 20 км н/о +14.1 +12.4 89 +12 +12 1012.7 1012.1
01 11.06 СВ 6 14 км н/о +14.0 +13.0 94 +12 +12 1012.1 1011.6
02 11.06 СВ 5 9000 м слаб. ливневой дождь н/о +13.8 +13.2 96 +12 +12 1011.6 1011.0 0.1
03 11.06 В 7 9000 м дымка {ливн. осадки, дождь} н/о +13.8 +13.3 97 +11 +11 1011.3 1010.8 0.1
04 11.06 В 8 5000 м дождь н/о +14.2 +13.9 98 +12 +12 1011.3 1010.8 0.7
05 11.06 В 9 4300 м дождь н/о +13.8 +13.6 99 +11 +11 1010.9 1010.3 5
06 11.06 СВ 7 9000 м в посл. час дождь {ливн. осадки} н/о +14.3 +13.8 97 +12 +12 1010.6 1010.1 +13.6 +14.9 7
07 11.06 В 9 11 км н/о +15.1 +13.8 92 +13 +13 1010.5 1009.9
08 11.06 В 8 10 км н/о +15.4 +14.0 91 +13 +13 1010.6 1010.1
09 11.06 В 8 11 км {дымка} н/о +16.0 +14.6 91 +14 +14 1011.0 1010.4
10 11.06 В 6 6000 м дымка н/о +15.5 +14.6 94 +14 +14 1011.6 1011.0
11 11.06 В 7 9000 м дымка н/о +16.1 +15.0 93 +15 +15 1011.1 1010.5
12 11.06 В 7 9000 м дымка н/о +16.2 +15.0 93 +15 +15 1010.7 1010.1
13 11.06 В 6 8000 м дымка н/о +15.9 +15.0 94 +15 +15 1011.5 1010.9
14 11.06 В 6 10 км н/о +16.5 +15.5 94 +15 +15 1012.0 1011.4
15 11.06 В 6 6000 м дождь н/о +15.8 +15.3 97 +14 +14 1012.2 1011.6 0.2
16 11.06 В 4 9000 м в посл. час дождь {ливн. осадки} н/о +15.9 +15.3 96 +15 +15 1012.2 1011.7 2
17 11.06 В 5 10 км н/о +15.8 +15.1 96 +15 +15 1012.2 1011.7
18 11.06 В 7 11 км {ливн. осадки, дождь} н/о +15.8 +15.0 95 +14 +14 1012.5 1011.9 +14.3 +16.8 2
19 11.06 В 6 12 км н/о +15.4 +14.7 96 +14 +14 1013.1 1012.5
20 11.06 В 8 500 м туман {дымка} н/о +13.9 +13.9 100 +11 +11 1013.5 1012.9
21 11.06 В 8 500 м туман {дымка} н/о +13.8 +13.8 100 +11 +11 1013.6 1013.0
22 11.06 В 9 800 м туман н/о +13.8 +13.8 100 +11 +11 1012.9 1012.3
23 11.06 В 8 1700 м в посл. час туман {дымка} н/о +14.1 +14.1 100 +11 +11 1012.9 1012.4
00 12.06 В 6 5000 м дымка {туман} н/о +14.3 +14.3 100 +12 +12 1013.6 1013.1
01 12.06 В 3 2000 м сильн. дождь н/о +14.6 +14.6 100 +14 +14 1014.2 1013.6 1
02 12.06 В 2 2700 м сильн. дождь н/о +14.1 +14.1 100 +14 +14 1013.5 1013.0 11
03 12.06 СВ 6 9000 м слаб. дождь н/о +14.2 +14.1 99 +12 +12 1011.5 1011.0 15
04 12.06 СВ 4 6000 м дымка {дождь} н/о +14.3 +14.3 100 +13 +13 1009.8 1009.3
05 12.06 СВ 6 8000 м дымка н/о +14.6 +14.5 99 +13 +13 1009.6 1009.0
06 12.06 В 7 11 км {дождь, дымка} н/о +15.1 +14.4 96 +13 +13 1010.6 1010.1 +13.7 +16.1 0.0
07 12.06 В 10 8000 м дымка н/о +14.8 +14.3 97 +12 +12 1011.4 1010.8
08 12.06 В 9 7000 м дымка н/о +14.9 +14.5 97 +12 +12 1011.8 1011.2
09 12.06 В 9 5000 м дымка н/о +14.7 +14.4 98 +12 +12 1011.8 1011.3
10 12.06 В 9 2800 м дымка н/о +14.7 +14.5 99 +12 +12 1011.6 1011.0
11 12.06 В 11 3000 м дымка н/о +14.8 +14.5 98 +12 +12 1010.8 1010.3
12 12.06 В 9 3800 м дымка н/о +14.7 +14.3 97 +12 +12 1010.0 1009.4
13 12.06 В 8 3800 м дымка н/о +14.4 +14.1 98 +12 +12 1010.0 1009.4
14 12.06 В 8 2000 м дымка н/о +14.3 +14.1 99 +12 +12 1009.1 1008.6
15 12.06 В 7 2900 м дымка н/о +14.3 +14.0 98 +12 +12 1008.6 1008.1
16 12.06 В 8 1300 м дымка н/о +13.8 +13.8 100 +11 +11 1008.0 1007.4
17 12.06 В 9 500 м туман {дымка} н/о +14.0 +14.0 100 +11 +11 1007.8 1007.2
18 12.06 В 5
{12}
500 м туман {дымка} н/о +13.6 +13.6 100 +12 +12 1009.2 1008.7 +13.4 +15.7
19 12.06 ЮВ 8 600 м сильн. дождь {туман} н/о +13.9 +13.9 100 +11 +11 1010.0 1009.4 4
20 12.06 В 6 2100 м дождь н/о +13.8 +13.8 100 +12 +12 1009.7 1009.1 11
21 12.06 В 8
{14}
3500 м слаб. дождь {туман} н/о +13.9 +13.9 100 +11 +11 1008.6 1008.0 18
22 12.06 ЮВ 1 3900 м в посл. час морось {дождь} н/о +14.1 +14.1 100 +14 +14 1008.9 1008.3
23 12.06 З 4 1900 м дымка н/о +14.6 +14.6 100 +13 +13 1009.0 1008.4
00 13.06 З 4
{14}
2700 м дымка {дождь, туман} н/о +15.1 +15.1 100 +14 +14 1010.2 1009.6 0.0
01 13.06 З 3 3300 м дымка н/о +15.3 +15.2 99 +14 +14 1010.6 1010.0
02 13.06 ЮЗ 2 3500 м дымка н/о +14.8 +14.7 99 +14 +14 1011.3 1010.8
03 13.06 ЮЗ 3 3100 м дымка н/о +14.1 +13.9 99 +13 +13 1011.5 1011.0
04 13.06 ЮЗ 3 3300 м дымка н/о +14.0 +13.7 98 +13 +13 1012.2 1011.7
05 13.06 ЮЗ 3 6000 м дымка н/о +14.6 +13.5 93 +14 +14 1012.9 1012.4
06 13.06 ЮЗ 3 12 км {дымка} н/о +15.6 +13.7 88 +15 +15 1013.1 1012.6 +13.2 +15.6
07 13.06 ЮЗ 2 16 км н/о +17.2 +14.7 85 +17 +17 1013.1 1012.5
08 13.06 Ю 5 9000 м дымка н/о +16.9 +14.9 88 +16 +16 1013.6 1013.1
09 13.06 Ю 4 7000 м дымка н/о +17.1 +15.0 87 +17 +17 1014.1 1013.5
10 13.06 ЮВ 3 6000 м дымка н/о +18.6 +16.2 86 +20 +20 1014.4 1013.8
11 13.06 ЮВ 3 8000 м дымка н/о +19.1 +16.3 84 +21 +21 комфорт 1014.6 1014.0
12 13.06 ЮВ 3 12 км {дымка} н/о +19.0 +16.3 84 +21 +21 комфорт 1014.5 1014.0
13 13.06 ЮВ 3 15 км н/о +17.4 +15.5 89 +18 +18 1014.4 1013.8
14 13.06 В 4 16 км н/о +17.5 +15.2 86 +17 +17 1014.5 1013.9
15 13.06 В 6 17 км н/о +16.9 +14.9 88 +16 +16 1014.3 1013.7
16 13.06 В 5 16 км н/о +16.9 +14.5 86 +16 +16 1014.5 1013.9
17 13.06 В 6 23 км н/о +17.0 +14.2 84 +16 +16 1014.2 1013.6
18 13.06 В 7 20 км н/о +16.0 +14.4 90 +15 +15 1014.0 1013.4 +15.3 +19.5
19 13.06 В 6 26 км н/о +15.7 +14.1 90 +14 +14 1014.1 1013.6
20 13.06 В 6 24 км н/о +16.0 +13.8 87 +15 +15 1014.5 1013.9
21 13.06 ЮВ 5
{19}
16 км в посл. час дождь {ливн. осадки} н/о +14.7 +13.8 94 +13 +13 1015.0 1014.5 6
22 13.06 ЮВ 4 12 км слаб. ливневой дождь н/о +15.2 +14.3 94 +14 +14 1015.9 1015.4 0.9
23 13.06 ЮВ 9 18 км {ливн. осадки} н/о +14.9 +13.7 93 +12 +12 1016.3 1015.7
00 14.06 ЮВ 7
{19}
16 км {ливн. осадки, дождь} н/о +14.6 +13.7 94 +12 +12 1016.3 1015.8 0.9
01 14.06 ЮВ 6 14 км н/о +14.3 +13.6 96 +12 +12 1016.7 1016.1
02 14.06 ЮВ 4 15 км н/о +14.2 +13.8 97 +13 +13 1017.0 1016.4
03 14.06 ЮВ 3 20 км н/о +14.0 +13.6 97 +13 +13 1017.3 1016.7
04 14.06 ЮВ 3 24 км н/о +14.3 +13.0 92 +13 +13 1017.8 1017.2
05 14.06 ЮВ 3 29 км н/о +15.7 +13.6 87 +15 +15 1017.7 1017.1
06 14.06 ЮВ 2 30 км н/о +15.8 +13.8 88 +16 +16 1018.2 1017.6 +13.7 +16.7
07 14.06 ЮВ 4 30 км н/о +16.1 +14.3 89 +15 +15 1018.5 1017.9
08 14.06 ЮВ 2 21 км н/о +18.4 +15.6 84 +19 +19 1019.1 1018.6
09 14.06 ЮВ 2 22 км н/о +17.4 +14.8 85 +18 +18 1019.4 1018.9
10 14.06 ЮВ 2 26 км н/о +17.8 +15.3 85 +18 +18 1019.4 1018.8
11 14.06 В 4 25 км н/о +17.9 +15.7 87 +18 +18 1019.2 1018.6
12 14.06 В 5 26 км н/о +18.4 +15.3 82 +19 +19 1019.1 1018.5
13 14.06 В 5 29 км н/о +18.4 +15.8 85 +19 +19 1018.9 1018.3
14 14.06 В 7 25 км н/о +18.1 +15.7 86 +18 +18 1018.4 1017.9
15 14.06 В 8 21 км н/о +17.5 +15.7 89 +16 +16 1017.8 1017.3
16 14.06 В 9 20 км н/о +17.5 +15.0 85 +16 +16 1017.0 1016.5
17 14.06 В 8 18 км н/о +17.1 +15.1 88 +16 +16 1017.3 1016.7
18 14.06 В 10 23 км н/о +16.9 +14.1 84 +15 +15 1016.6 1016.0 +15.8 +19.9
19 14.06 В 9 20 км н/о +16.2 +14.1 87 +14 +14 1016.6 1016.0
20 14.06 В 1 23 км в посл. час дождь {ливн. осадки} н/о +18.6 +13.9 74 +20 +20 1018.1 1017.6 0.2
21 14.06 В 5
{12}
29 км {ливн. осадки, дождь} н/о +17.3 +13.3 77 +17 +17 1017.8 1017.2 0.2
22 14.06 В 5 29 км н/о +16.1 +12.5 79 +15 +15 1017.6 1017.0
23 14.06 В 6 30 км н/о +16.3 +12.7 79 +15 +15 1016.8 1016.2
00 15.06 СВ 6
{12}
30 км {ливн. осадки, дождь} н/о +16.4 +13.0 80 +15 +15 1016.3 1015.8
01 15.06 В 5 22 км н/о +16.0 +14.0 88 +15 +15 1015.8 1015.3
02 15.06 В 6 24 км н/о +17.0 +14.2 84 +16 +16 1015.3 1014.7
03 15.06 В 5 29 км н/о +16.4 +13.9 85 +16 +16 1014.4 1013.8
04 15.06 В 6 21 км н/о +16.1 +14.4 90 +15 +15 1014.0 1013.5
05 15.06 В 7 17 км н/о +16.3 +14.4 89 +15 +15 1013.3 1012.7
06 15.06 В 7 14 км н/о +16.6 +14.7 89 +15 +15 1013.1 1012.5 +15.3 +19.2
07 15.06 В 7 16 км н/о +16.1 +14.6 91 +15 +15 1013.3 1012.8
08 15.06 В 7 20 км {ливн. осадки, морось} н/о +15.9 +14.2 90 +14 +14 1013.1 1012.5
09 15.06 СВ 7 18 км слаб. ливневой дождь н/о +15.5 +14.0 91 +14 +14 1012.3 1011.8 0.1
10 15.06 С 5 18 км в посл. час дождь {ливн. осадки} н/о +15.7 +13.9 89 +14 +14 1013.2 1012.6
11 15.06 В 11 5000 м сильн. ливневой дождь н/о +16.8 +13.0 78 +15 +15 1012.4 1011.8 6
12 15.06 СВ 8
{18}
1800 м сильн. дождь {ливн. осадки} н/о +14.4 +12.9 91 +12 +12 1012.1 1011.5 14
13 15.06 СВ 9 17 км в посл. час дождь {ливн. осадки} н/о +16.4 +12.6 78 +15 +15 1011.4 1010.9 0.3
14 15.06 СВ 10 17 км слаб. морось {дождь} н/о +16.9 +11.7 71 +15 +15 1011.1 1010.5
15 15.06 В 9
{15}
23 км в посл. час осадки {ливн. осадки} н/о +18.1 +11.4 65 +17 +17 1010.2 1009.7 0.3
16 15.06 В 10 18 км н/о +16.7 +12.6 77 +15 +15 1010.7 1010.1
17 15.06 В 5 12 км слаб. ливневой дождь н/о +15.8 +13.8 88 +15 +15 1011.1 1010.6 0.3
18 15.06 В 6
{15}
11 км {ливн. осадки, дождь} н/о +15.8 +13.9 88 +14 +14 1010.7 1010.1 +14.4 +18.2 0.3
19 15.06 В 3 8000 м дымка н/о +15.1 +14.1 94 +14 +14 1011.5 1011.0
20 15.06 ЮВ 3 7000 м дымка н/о +15.4 +14.7 96 +15 +15 1012.3 1011.7
21 15.06 ЮЗ 1 6000 м дымка н/о +15.2 +14.5 96 +16 +16 1012.8 1012.3

 

Местоположение метеостанции Виндебаек (Дания): широта 54.88 долгота 12.18 высота над уровнем моря 5 м.

В архиве по умолчанию представлена погода в Виндебаеке за последнюю неделю. Архивные данные за месяц целиком и за предыдущие месяцы, начиная с января 2011 года, Вы можете получить, выбрав интересующий диапазон дат из раскрывающегося списка и нажав кнопку "Ввод!".


*Определитесь, кто Вы:
робот инопланетянин человек

Внимание! Время в таблицах - всемирное. Для получения местного времени необходимо прибавить поправку, которая равна 1 ч.

Смотрите также архив погоды в соседних городах и на ближайших метеорологических станциях:

Погода в Гедсер Одде (Дания) (37 км)
Погода в Бранделеве (Дания) (42 км)
Погода в Абеде (Дания) (55 км)
Погода в Кёге (Дания) (58 км)
Погода в Барте (Германия) (67 км)
Погода в Тысофте (Дания) (68 км)
Погода в Фальстербу АМС (Швеция) (69 км)
Погода в Фальстербу (Швеция) (69 км)
Погода в Флаккебэрге (Дания) (70 км)
Погода в Мариенлойхте (Германия) (74 км)

Пояснения к столбцам:

Ветер - указаны скорость ветра в м/с - средняя за 10 мин, порывы в срок и между сроками (в фигурных скобках) и направление, откуда дует ветер: С - северный, СВ - северо-восточный, В - восточный, ЮВ - юго-восточный, Ю - южный, ЮЗ - юго-западный, З - западный, СЗ - северо-западный.
Видимость - горизонтальная дальность видимости в метрах или километрах. При видимости от 1 до 10 км при отсутствии осадков обычно наблюдается дымка, при ухудшении видимости до 1 км и менее - туман. В сухую погоду видимость может ухудшаться дымом, пылью или мглою.
Явления - указаны атмосферные явления, наблюдавшиеся в срок или в последний час перед сроком; фигурными скобками обозначены явления, наблюдавшиеся между сроками (за 1-3 часа до срока); квадратными скобками обозначены град или гололедные отложения с указанием их диаметра в мм.
Облачность - указаны через наклонную черту общая и нижняя облачность в баллах и высота нижней границы облаков в метрах; квадратными скобками обозначены формы облаков: Ci - перистые, Cs - перисто-слоистые, Cc - перисто-кучевые, Ac - высококучевые, As - высокослоистые, Sc - слоисто-кучевые, Ns - слоисто-дождевые, Cu - кучевые, Cb - кучево-дождевые. Подробнее классификацию облаков см. в Атласе облаков (PDF).
T - Температура воздуха - температура, измеренная на высоте 2 м над землей.
Td - Температура точки росы - температура, при понижении до которой содержащийся в воздухе водяной пар достигнет насыщения.
f - Относительная влажность воздуха - влажноcть воздуха, измеренная на высоте 2 м над землей.
Te - Эффективная температура - температура, которую ощущает одетый по сезону человек в тени. Характеристика душности погоды. При расчете учитывается влияние влажности воздуха и скорости ветра на теплоощущения человека.
Tes - Эффективная температура на солнце - температура, которую ощущает человек, с поправкой на солнечный нагрев. Характеристика знойности погоды. Зависит от высоты солнца над горизонтом, облачности и скорости ветра. Ночью, в пасмурную погоду, а также при ветре 12 м/с и более поправка равна нулю.
P - Атмосферное давление - приведенное к уровню моря атмосферное давление.
Po - Атмосферное давление - измеренное на уровне метеостанции атмосферное давление.
Tmin - Минимальная температура - минимум температуры воздуха на высоте 2 м над землей.
Tmax - Максимальная температура - максимум температуры воздуха на высоте 2 м над землей.
R - Количество осадков - Количество выпавших осадков за период времени, мм. При наведении курсора мыши на число - период времени, за который выпало указанное количество осадков.
R24 - Количество осадков - Количество выпавших осадков за 24 часа, мм.
S - Снежный покров - Высота снежного покрова, см. При наведении курсора мыши на число - состояние снежного покрова и степень покрытия местности в баллах.